FENGYUN 1C DEB

Satellite information

Favourite Embed

Satellite Type and Status

DEBRISIN ORBIT

Key statistics

Satellite FENGYUN 1C DEB at a glance.

Uptime

9714

Days in orbit

Revolutions

≈ 14.2

Per day

Orbit

SSO

Sun Synchronous Orbit

Inclination

98.6

Latest

Satellite identification and parameters

Extended collection of information and parameters for FENGYUN 1C DEB.

Object identification

Identified? True

Debris? True

Object name: FENGYUN 1C DEB

International designator: 1999-025ADB

Object number (NORAD): 30388

Object ID (CCSDS): 30388

Country: PEOPLES REPUBLIC OF CHINA (PRC)

Current information (Y/N): Y

RCS size: SMALL

Orbital parameters

Period: 101.425 minutes

Inclination: 98.5995 deg

SMA: 7204.281 km

Apoapsis: 986.199 km

Periapsis: 666.092 km

RAAN: 6.7118 deg

Eccentricy: 0.0222165

Argument of periapsis: 64.8693 deg

Mean anomaly: 359.7789 deg

Mean motion: 14.19766204 rev/day

Mean motion (dot): 0.00001719 rev/day2

B* drag term: 0.0006502 1/REarth

Two-line elements (TLE)

Creation date: Dec. 12, 2025, 7:26 a.m.

Reference frame: TEME

Reference center: EARTH

Epoch: Dec. 12, 2025, 12:36 a.m. UTC

TLE line 0: 0 FENGYUN 1C DEB

TLE line 1: 1 30388U 99025ADB 25346.02552571 .00001719 00000-0 65020-3 0 9998

TLE line 2: 2 30388 98.5995 6.7118 0222165 64.8693 359.7789 14.19766204974228

Live tracking on map

Real-time ground track for satellite FENGYUN 1C DEB.

In-orbit conjunctions

A list of the most updated potential collisions computed for object FENGYUN 1C DEB.

Target Orbit TCA Probability of collision Miss distance Type
COSMOS 2251 DEB LEO 2025-07-23 21:50:04 0.0001129269 208.0 (m) DEBRIS
COSMOS 586 LEO 2024-10-10 04:57:49 0.0001428396 662.0 (m) PAYLOAD
COSMOS 2251 DEB LEO 2024-07-13 11:04:49 0.0001257618 86.0 (m) DEBRIS

Associated space launch

Chinese polar orbiting meteorological satellite

FENGYUN 1C DEB was lifted into orbit during the mission ‘Long March 4B | Feng Yun 1C’, on board a Long March 4B space rocket.

The launch took place on May 10, 1999, 1:33 a.m. from Launch Complex 7.

For more information about the launch, click the button.

Launch to space Long March 4B | Feng Yun 1C
Long March 4B | Feng Yun 1C

Agency: N/A

Status: Launch Successful

Launch date: May 10, 1999, 1:33 a.m. UTC

Rocket: Long March 4B

Launch pad: Launch Complex 7

Location: Taiyuan Satellite Launch Center, People's Republic of China

...

Latest news about this satellite

There are no fresh news available about this satellite. Check back as we update our databases every day.


Newsletter sign-up

Weekly statistics, charts and insights to help you stay on top of the space industry.